Theta_e
337 337 337 336 336 337 337 337 337 337 338 338 337 337 337 337 337 337 337 338 337 337 337 338 339 338 338 338 338 338 338 338 338 337 337 338 337 336 336 336 336 337 336 336 336 336 336 335 336 336 335 335 335 334 333 332 333 333 333 333 332 333 332 332 332 333 332 332 332 331 331 333 335 334 331 330 331 331 331 332 333 334 333 333 334
338 338 337 336 336 337 337 337 337 337 337 337 337 337 337 338 337 337 338 338 338 338 338 339 339 338 338 338 338 337 337 338 338 337 337 336 335 335 335 336 336 336 336 335 335 335 334 334 334 334 334 333 333 332 332 331 331 331 331 331 331 331 329 329 330 331 330 330 331 332 333 334 334 332 329 329 330 331 331 330 331 331 329 329 331
339 339 338 336 336 336 337 337 336 336 336 336 336 337 338 337 337 337 337 338 339 339 339 339 339 338 338 338 337 337 337 337 337 336 335 334 334 334 334 334 334 334 334 334 334 333 332 332 332 332 332 332 331 331 330 329 328 328 328 329 329 329 328 327 328 328 328 329 331 333 335 335 333 331 327 327 328 330 330 328 329 328 325 326 328
341 340 339 337 336 337 337 336 336 335 335 336 336 337 337 337 337 337 338 338 339 339 339 339 338 338 338 337 337 337 336 336 335 334 332 332 332 332 332 332 332 333 332 333 332 330 330 330 330 330 329 329 329 328 327 326 326 325 325 326 327 327 326 326 326 326 326 328 331 332 332 333 333 328 325 326 327 328 329 326 326 325 322 323 325
342 342 339 337 337 336 336 336 336 335 335 336 336 337 337 337 337 337 338 338 338 338 338 338 337 337 337 336 336 336 335 334 333 331 330 330 330 330 330 330 330 331 331 331 330 329 329 329 328 328 327 326 326 325 324 324 323 323 323 323 324 325 325 324 325 324 323 325 327 329 329 331 330 326 325 328 326 325 327 325 323 321 320 321 322
340 340 338 337 337 336 336 336 336 335 336 337 337 337 337 336 337 337 338 338 338 337 336 337 337 336 336 336 335 334 333 332 331 330 329 329 328 328 328 328 328 329 328 328 328 328 327 327 328 327 325 324 323 322 322 322 322 321 321 321 322 323 323 323 322 322 321 321 322 323 325 326 325 324 326 327 324 324 325 322 320 318 318 319 318
339 339 338 337 336 336 335 335 336 336 336 336 337 336 336 336 337 337 337 337 337 335 334 335 336 336 336 335 335 333 333 332 330 329 328 327 327 327 327 327 327 327 326 326 326 326 325 325 325 325 323 322 321 321 321 320 320 320 319 320 320 320 320 319 318 319 319 318 318 319 320 321 321 321 322 322 323 323 322 320 318 316 316 317 316
338 339 338 337 336 335 335 335 335 335 335 336 336 336 336 336 336 336 336 336 336 335 334 335 336 335 335 335 334 333 333 331 329 328 327 327 326 326 325 325 325 325 324 324 324 323 323 322 322 321 321 320 320 320 319 319 319 318 318 318 317 317 317 316 316 316 316 316 316 317 317 318 318 317 316 318 321 321 319 317 316 314 314 315 314
338 338 337 336 335 335 335 336 336 335 335 335 336 336 336 335 335 335 334 334 334 334 334 335 335 335 334 334 333 333 333 330 328 327 326 326 325 324 324 323 323 323 322 322 321 321 320 320 319 319 319 318 318 318 318 317 317 316 317 317 316 315 314 315 314 314 314 314 314 314 314 315 315 314 313 314 317 318 317 315 314 313 312 313 313
337 336 336 336 335 335 335 336 336 335 335 335 335 335 335 334 334 334 334 333 334 334 335 335 335 335 334 333 333 333 332 330 327 326 325 325 324 322 322 321 321 320 319 319 319 318 318 317 317 317 317 316 316 317 316 315 315 315 315 315 314 313 313 313 312 312 312 312 311 311 311 312 312 312 311 312 313 314 314 313 313 312 311 311 311
336 336 336 336 335 336 336 336 335 335 335 335 335 334 334 333 333 334 334 334 334 335 335 334 334 334 333 333 333 332 331 329 326 324 323 323 321 320 320 319 318 317 317 317 316 316 316 315 315 315 315 315 315 314 314 313 313 314 314 313 313 312 312 311 310 311 311 310 309 310 310 310 310 310 310 310 310 310 311 311 310 310 310 310 309
336 336 337 336 336 335 335 335 334 334 334 334 333 333 333 332 333 334 333 333 333 333 333 333 333 333 333 333 332 331 330 327 325 322 321 321 319 318 318 317 316 315 315 315 314 314 314 314 314 314 314 314 314 313 312 312 313 312 312 312 311 311 310 310 310 310 310 308 308 308 307 307 307 307 307 306 306 306 306 307 306 306 307 307 306
336 337 337 336 335 334 334 334 333 333 333 332 331 331 331 331 332 333 332 332 332 332 332 332 332 333 332 331 331 330 328 326 324 321 320 319 319 318 317 315 315 314 313 313 312 312 312 312 312 312 312 312 312 311 311 312 312 311 311 310 310 309 309 309 309 309 308 307 306 306 305 305 304 304 304 303 303 303 303 303 303 304 304 304 304
336 336 336 335 334 333 333 333 332 332 331 330 329 329 329 329 330 330 330 330 331 331 331 331 331 331 330 330 329 328 327 325 323 320 319 319 318 317 315 315 314 314 312 311 310 310 311 310 310 310 311 311 311 310 310 311 311 310 310 309 308 308 308 308 308 307 306 305 305 304 303 303 302 302 302 301 301 302 302 302 302 302 302 302 302
336 335 335 334 333 333 332 332 331 330 329 328 327 327 327 327 327 327 326 327 328 329 329 329 329 328 328 327 326 325 324 323 321 319 319 318 318 316 314 314 313 312 311 309 308 309 309 309 309 309 310 310 310 309 309 309 309 308 308 308 307 307 306 307 306 305 304 304 303 302 302 301 300 300 299 299 300 300 301 301 301 301 301 301 301
336 335 334 333 333 332 332 331 330 329 327 326 326 325 325 325 325 325 325 325 326 326 326 326 325 325 325 324 323 322 322 321 319 318 318 318 317 315 314 313 312 310 309 308 307 308 308 308 308 308 309 309 309 308 308 308 308 307 307 307 306 306 306 305 305 303 302 301 301 300 300 299 298 298 298 298 298 299 299 299 299 300 300 300 300
336 335 333 332 332 332 331 330 329 327 326 325 325 324 324 324 324 323 323 323 323 323 323 322 322 322 322 321 321 320 320 319 318 317 317 316 315 315 314 312 311 309 308 307 307 307 307 307 307 308 308 308 308 307 307 307 306 306 306 305 305 305 304 304 303 302 300 299 298 297 298 298 298 298 297 297 298 298 298 298 298 299 299 299 299
335 334 333 332 331 331 330 329 328 326 325 324 323 323 323 323 323 322 321 321 321 321 321 320 320 320 319 319 319 319 318 318 317 317 316 315 314 314 312 311 309 308 307 306 306 306 306 306 307 307 307 306 306 307 306 306 306 305 305 304 304 304 303 302 302 301 299 298 297 296 297 297 297 297 297 297 297 297 297 297 297 298 298 298 298
334 333 332 331 331 330 329 328 326 325 324 323 322 322 322 321 321 321 320 320 319 319 319 319 319 318 318 318 317 317 317 316 316 315 315 314 314 312 311 309 308 306 306 305 305 304 305 305 306 307 307 306 306 306 305 305 305 305 304 304 303 303 302 301 301 300 299 297 297 297 297 297 297 297 297 296 296 296 296 296 297 297 297 298 298
334 333 331 330 330 329 328 326 325 324 322 322 321 321 321 320 320 320 319 318 318 318 318 317 317 317 317 316 316 316 315 315 315 314 314 313 312 310 309 308 306 305 305 304 304 304 303 304 306 306 306 305 305 305 305 304 304 304 303 303 302 302 302 301 300 300 299 297 297 297 296 296 296 296 296 296 296 296 296 296 296 296 297 297 297
333 332 331 330 329 328 327 326 324 322 321 321 321 320 320 319 319 318 318 317 317 317 317 316 316 316 316 315 315 314 313 313 313 313 312 311 310 309 307 306 305 304 304 303 303 302 302 303 305 306 306 305 305 305 304 304 304 303 303 302 302 302 301 301 300 300 298 297 297 297 296 296 296 296 296 296 296 295 295 295 296 296 296 296 296
333 332 330 329 329 328 327 325 323 321 320 319 319 319 318 318 318 317 316 316 316 316 316 316 315 315 315 314 313 312 312 312 312 312 311 309 308 307 306 305 304 303 303 302 301 300 300 301 304 305 306 305 305 304 304 304 303 303 302 302 302 301 301 300 300 299 297 297 297 296 296 296 296 295 295 296 296 295 295 295 295 296 296 296 296
332 331 330 329 328 327 326 324 322 321 320 319 318 318 317 317 316 316 316 315 315 315 315 315 314 314 313 313 312 312 312 311 311 310 310 308 307 306 305 304 303 302 302 300 298 297 297 299 302 305 305 305 304 304 304 304 303 303 302 301 301 301 300 300 300 298 297 297 297 296 296 295 295 295 295 296 296 296 296 296 296 296 296 296 296
332 330 329 328 327 327 325 323 322 320 319 318 317 317 316 316 316 315 315 315 314 314 314 314 314 313 313 313 312 312 311 311 310 309 308 307 306 305 304 303 302 302 300 297 295 296 296 297 301 304 305 305 304 304 304 303 303 302 302 301 301 301 300 300 299 298 297 298 297 296 295 295 295 295 295 296 296 296 296 296 296 296 296 296 296
331 330 329 328 327 326 324 323 321 319 318 317 317 316 316 315 315 315 315 315 314 313 314 313 313 313 313 312 312 311 311 310 309 308 307 306 305 304 303 303 302 300 297 295 295 295 295 297 301 304 305 304 304 304 304 303 302 302 301 301 300 300 300 299 298 297 298 298 297 296 295 295 295 295 295 295 296 296 296 296 296 296 296 296 296
330 329 328 327 326 325 323 322 321 319 318 317 316 316 315 314 314 314 314 314 313 313 313 313 312 312 312 311 311 310 310 309 308 307 306 306 304 303 303 302 300 297 295 295 295 295 295 296 300 303 304 304 304 304 303 303 302 302 301 301 300 300 300 299 298 297 298 298 297 295 295 295 295 295 295 295 295 296 296 296 296 296 297 296 296
329 328 328 327 326 324 322 321 320 319 317 316 315 315 314 314 314 313 313 313 313 312 312 312 311 311 311 310 310 310 309 308 307 307 306 305 304 303 302 301 299 295 294 295 294 295 295 296 299 302 303 304 304 303 303 302 302 301 301 300 300 300 299 299 298 298 298 297 296 295 295 295 295 295 295 295 295 295 296 296 296 296 297 296 296
329 328 327 326 325 323 321 320 320 318 317 316 315 314 314 314 313 313 313 313 312 312 311 311 310 310 310 310 309 309 308 307 307 306 306 305 304 303 302 301 299 295 294 294 294 294 295 297 299 301 302 303 303 303 303 302 301 301 300 300 300 300 299 298 298 298 298 296 295 295 295 295 295 295 295 295 295 295 295 296 296 296 296 296 296
328 327 326 326 324 322 321 320 319 318 317 315 314 313 313 313 313 312 312 312 312 311 311 310 310 310 309 308 308 307 307 306 306 306 305 304 303 303 302 302 299 296 294 294 294 294 294 296 299 300 301 302 302 303 302 302 301 301 300 300 300 300 299 298 298 298 297 296 295 295 295 295 295 295 295 295 295 295 295 295 295 296 296 296 296
328 327 326 325 324 322 320 320 318 317 316 314 313 313 312 312 312 312 312 312 311 311 310 310 310 309 309 308 307 307 306 306 306 305 305 304 303 303 303 301 298 294 293 293 294 294 294 295 297 299 301 301 302 302 302 301 301 301 300 299 299 300 299 298 298 297 296 295 295 295 295 295 295 295 295 295 295 295 295 295 295 295 295 296 296
327 326 325 324 323 322 320 320 318 316 315 313 313 312 312 312 312 311 311 311 311 311 310 310 309 309 308 307 307 306 306 306 305 305 305 304 303 303 302 300 297 294 294 293 293 293 294 294 296 298 300 301 301 301 301 301 301 301 300 299 299 299 299 299 298 297 296 296 295 295 295 295 295 295 295 295 295 295 295 295 295 295 295 295 295
327 326 325 323 322 321 321 320 317 315 314 313 312 312 311 311 311 311 311 311 310 310 310 309 309 308 307 307 306 306 306 306 305 305 305 304 303 302 301 300 299 298 296 293 293 293 293 294 296 297 299 300 300 301 301 301 301 301 300 300 300 299 299 299 297 296 296 296 295 295 295 295 295 295 295 295 295 295 295 295 295 295 295 295 295
326 325 324 323 322 321 320 319 316 315 314 313 312 312 311 311 311 311 311 310 310 310 309 309 308 307 307 306 306 306 306 305 305 305 304 303 302 302 301 301 301 300 298 294 293 293 293 293 295 297 298 299 299 300 300 301 300 300 300 300 300 299 299 298 297 297 297 296 296 295 295 295 295 295 295 295 295 295 295 295 295 295 295 295 295
326 325 324 323 321 321 320 318 316 315 314 313 312 312 311 311 311 310 310 310 309 309 309 308 307 307 306 306 305 305 305 305 305 304 304 303 302 302 302 302 302 301 299 295 293 293 293 293 293 295 297 298 299 299 300 300 300 300 300 300 300 299 299 298 297 297 297 297 296 296 295 295 295 295 295 295 295 295 295 295 295 295 295 295 295
326 324 323 322 321 320 319 317 316 315 314 312 312 311 311 311 310 310 310 309 309 309 308 307 306 306 306 306 305 305 305 304 304 304 304 304 303 302 302 302 302 302 301 297 294 293 293 292 292 293 294 296 298 298 299 299 299 299 299 299 299 299 299 298 297 297 297 297 297 296 295 295 295 295 296 295 295 295 295 295 294 294 294 294 294
326 324 323 322 320 320 318 316 315 314 313 312 311 311 311 310 310 310 309 309 308 307 306 306 306 305 305 305 305 305 305 304 304 304 304 303 303 303 302 302 302 302 301 300 297 295 294 293 292 292 292 293 295 296 297 297 297 298 299 299 298 298 298 298 297 297 297 297 297 296 295 296 296 295 295 295 295 295 295 295 294 294 294 294 294
324 323 322 321 320 320 318 316 314 313 313 312 311 311 311 310 310 309 308 308 307 306 305 305 305 305 305 305 305 305 304 304 304 303 304 303 303 303 302 302 302 301 301 301 299 296 295 294 293 291 291 292 292 293 293 294 294 295 297 298 298 298 298 298 297 297 297 297 296 295 295 296 296 295 295 294 295 295 295 294 294 294 294 294 293
323 322 322 321 320 319 317 315 314 313 313 312 312 311 311 310 309 308 307 307 306 305 304 304 304 304 305 305 304 304 303 303 303 303 303 302 302 302 302 302 302 301 301 301 298 296 296 296 295 293 291 291 292 292 292 292 293 294 295 297 298 298 297 297 296 296 296 295 295 296 296 296 296 295 294 295 295 295 294 294 294 294 294 294 293
323 322 321 320 320 318 316 315 314 313 312 312 311 311 310 309 308 307 307 306 305 304 304 304 304 304 304 304 303 302 302 302 302 302 302 302 302 301 301 302 302 301 300 298 297 296 297 297 296 294 293 291 291 292 292 292 293 294 295 296 297 297 296 295 295 295 295 296 296 296 296 296 296 294 294 294 295 295 294 294 294 294 293 293 293
321 321 321 320 319 317 315 314 314 313 312 312 312 311 310 309 307 307 306 305 304 304 303 303 304 304 303 303 302 302 302 302 303 303 302 302 302 300 299 300 300 299 298 297 298 298 298 298 297 296 294 293 292 291 292 292 293 294 295 295 296 296 295 295 295 296 296 296 296 296 296 295 295 294 294 294 294 295 294 294 294 294 293 293 293
320 320 320 320 318 316 315 314 313 313 312 312 311 310 309 308 306 306 305 304 304 303 303 303 304 303 302 302 303 303 303 303 303 303 302 302 301 299 297 297 298 298 298 299 300 299 299 299 298 296 295 294 293 292 291 292 292 293 294 295 295 294 295 295 295 295 295 295 296 296 295 295 294 294 294 293 294 295 294 294 294 294 293 292 292
320 319 319 319 317 315 314 314 313 313 312 311 311 310 308 306 305 305 304 304 303 303 303 303 302 301 302 303 303 303 303 303 303 302 302 301 301 300 299 299 299 300 300 300 300 300 300 299 298 297 295 295 294 293 291 291 291 292 294 294 294 294 295 295 295 295 295 295 295 295 295 295 294 294 294 293 294 294 293 293 294 293 292 291 292
318 318 318 318 316 314 314 313 313 312 312 311 311 309 307 305 305 305 304 302 302 302 302 302 301 302 303 303 303 303 303 302 302 302 302 302 301 301 301 300 300 300 300 300 301 300 300 299 299 297 295 295 294 293 291 290 291 292 293 294 294 294 294 295 295 295 295 295 295 295 295 295 294 294 293 293 294 293 292 293 293 292 291 291 292
318 318 318 317 315 314 313 313 312 312 311 311 310 308 306 305 305 304 303 302 302 302 302 302 302 303 303 302 302 302 302 302 302 302 302 301 301 301 301 301 301 301 301 301 301 301 300 300 299 297 295 295 294 292 290 290 291 293 293 294 294 294 294 294 295 295 295 295 295 295 295 294 294 294 293 293 293 293 292 292 292 291 290 291 291
317 317 317 317 315 314 313 312 312 311 311 310 309 307 305 304 304 303 302 301 301 301 301 302 302 302 302 302 302 301 301 301 301 301 301 301 301 301 301 301 301 301 301 301 301 301 301 300 299 297 296 295 293 291 290 291 292 293 294 294 294 294 294 295 295 295 295 295 295 295 295 294 294 293 293 293 293 292 292 291 291 290 290 290 291
317 317 317 316 315 313 312 312 312 311 310 309 308 307 305 304 303 302 301 301 301 301 301 302 302 302 302 302 301 301 301 301 301 301 301 301 301 301 301 301 301 301 301 301 301 301 301 300 299 297 296 295 293 291 290 291 292 293 294 294 294 294 295 295 295 295 295 295 295 295 295 294 294 293 293 293 292 292 291 291 291 290 290 290 290
316 316 316 316 315 313 312 312 311 310 310 308 307 306 305 304 303 302 301 301 301 301 301 301 302 302 302 301 301 301 301 301 301 301 301 301 301 301 301 301 301 302 301 301 301 301 300 299 298 296 296 294 292 291 291 292 293 294 294 294 294 295 295 295 295 295 295 295 295 295 294 294 294 293 293 293 292 292 291 291 290 290 290 289 290
316 316 315 315 314 313 312 311 310 310 309 308 307 306 305 304 303 302 301 301 301 301 301 301 302 302 302 302 302 301 301 301 301 301 301 301 300 300 301 301 301 301 301 301 301 301 299 298 297 296 295 294 293 292 291 292 293 294 294 295 295 295 295 295 295 295 296 295 295 295 294 294 294 293 293 293 292 292 291 291 291 290 289 289 290
315 315 315 315 314 313 312 310 310 309 308 307 306 305 305 304 302 302 302 301 301 301 301 301 302 302 302 302 302 302 302 301 302 302 302 301 301 301 301 301 301 301 301 301 301 300 299 298 298 296 295 295 294 292 291 292 294 295 295 295 296 296 296 296 296 295 296 296 295 295 294 294 294 293 293 293 292 292 292 292 291 290 289 289 289
315 314 315 314 313 312 311 310 309 308 307 307 306 305 304 303 302 302 302 301 301 301 301 301 302 301 302 302 302 302 302 302 302 302 302 301 301 301 301 301 301 301 300 300 300 300 299 299 298 297 296 296 295 293 291 292 294 295 296 296 296 296 296 296 296 295 295 295 295 295 294 294 294 293 293 293 292 292 292 293 292 291 290 289 289
314 314 314 314 313 312 311 310 309 308 307 306 306 305 303 302 302 302 302 301 301 301 301 301 301 301 302 302 302 302 302 302 302 302 302 301 301 300 300 300 300 300 300 299 299 299 299 298 297 297 297 296 294 292 291 291 293 295 296 296 296 296 296 297 297 296 295 296 295 295 294 294 294 294 293 293 293 292 292 293 293 292 291 289 289
Wind_Speed
12 17 17 17 18 19 20 21 21 19 18 19 20 20 21 22 24 24 25 25 25 25 25 25 24 22 20 18 18 17 14 14 13 10 9 9 9 10 11 12 13 12 13 13 14 13 13 11 10 9 9 9 11 11 11 10 8 7 7 7 7 8 11 14 12 9 10 11 12 11 10 8 4 4 9 11 10 12 13 12 13 14 16 18 18
11 14 16 18 18 18 19 19 20 19 18 19 19 20 21 21 21 23 24 24 24 24 25 25 24 23 22 21 20 18 15 14 14 12 12 13 13 15 16 16 16 15 14 14 14 12 12 11 10 11 11 11 11 11 10 9 9 8 7 8 9 10 13 16 15 11 11 11 8 8 10 7 4 4 7 11 11 12 13 13 13 14 17 19 17
11 11 14 19 18 17 18 18 19 18 17 17 19 20 21 20 21 22 23 24 24 23 24 24 22 22 22 22 21 19 16 14 15 16 17 17 17 18 18 17 16 15 14 13 13 12 11 11 11 11 11 11 10 9 9 9 10 10 10 9 8 9 11 14 16 14 13 10 4 4 5 4 6 7 9 13 11 10 11 14 15 14 18 20 18
11 10 10 16 17 16 17 18 18 17 17 17 19 20 20 20 20 21 23 23 23 22 22 22 21 20 21 21 20 18 17 17 19 20 20 20 20 19 18 16 15 14 13 12 12 12 11 11 11 11 12 10 9 9 10 10 11 11 11 11 9 9 10 12 14 15 15 11 4 2 2 2 3 5 14 16 9 8 10 12 15 17 20 20 19
12 11 9 12 16 17 18 18 18 18 18 18 18 19 19 19 19 20 22 21 22 21 21 22 22 21 21 21 19 19 20 21 22 21 21 21 20 19 17 14 13 12 11 10 10 10 10 10 9 10 10 10 9 10 10 11 11 11 11 11 10 10 9 9 11 12 15 14 8 3 1 2 1 6 12 8 6 10 9 10 16 19 21 19 20
12 13 12 12 15 17 18 19 19 18 18 18 18 18 19 18 18 19 21 21 21 21 21 22 23 24 23 22 21 21 20 20 21 21 21 21 20 18 16 13 11 11 10 9 8 8 9 9 8 8 8 9 9 9 9 10 11 12 12 11 11 9 7 9 11 10 11 14 13 9 4 3 3 7 7 3 8 9 4 11 18 21 21 18 20
10 10 12 12 14 17 17 18 20 19 18 18 17 17 18 18 17 19 21 21 22 21 20 21 23 23 23 22 23 23 21 19 21 21 21 20 18 16 15 13 11 10 9 9 8 8 8 9 8 7 7 8 7 7 9 11 12 13 12 12 12 11 10 12 14 11 10 12 13 11 9 9 9 9 5 3 7 4 5 14 17 20 21 17 22
10 9 10 11 14 17 17 18 19 19 19 18 17 18 18 17 17 18 21 21 22 21 20 21 23 23 22 22 23 24 23 22 21 21 20 19 17 15 13 12 11 9 9 9 8 8 7 7 7 7 7 8 8 9 11 12 13 13 12 13 14 15 15 16 17 16 14 14 13 13 13 13 13 14 12 7 4 4 9 14 17 23 20 14 21
11 10 10 11 14 18 18 18 19 19 19 18 17 18 17 17 17 19 21 20 20 20 19 19 21 21 22 23 23 23 24 24 22 21 20 17 16 15 13 12 11 10 9 8 8 8 7 7 7 7 9 10 10 11 12 12 13 13 13 14 16 18 17 17 18 18 18 17 16 17 16 15 14 15 17 13 6 4 6 8 17 25 19 14 20
10 10 10 12 15 17 19 19 19 18 18 19 18 18 18 17 17 19 19 19 19 18 18 18 18 20 22 25 25 24 25 24 22 21 20 17 17 16 14 12 11 10 10 9 9 8 8 9 9 10 11 11 12 13 13 13 13 14 15 16 17 18 17 17 18 18 19 20 20 20 19 16 13 12 15 14 9 6 5 7 13 18 17 17 21
10 9 9 13 16 18 19 19 20 20 20 20 19 18 18 17 18 19 19 18 18 18 18 18 20 21 23 25 26 26 26 24 23 22 20 18 18 17 15 14 13 12 11 11 11 10 10 10 11 12 13 13 14 14 14 15 15 16 16 16 17 18 18 18 19 18 20 22 22 23 21 19 16 13 13 14 10 7 6 6 11 16 16 18 22
10 10 9 11 13 16 19 19 20 21 20 21 20 19 19 18 19 20 18 18 19 19 19 20 22 24 24 25 26 26 25 23 23 22 20 20 19 18 17 16 16 15 14 14 12 11 11 12 13 13 14 15 15 16 16 16 16 16 17 17 18 19 19 19 19 19 21 23 24 24 23 22 22 18 17 17 15 12 10 6 10 16 13 15 22
10 9 9 9 9 13 17 19 20 21 21 21 21 21 21 21 22 22 19 18 19 20 21 22 23 24 24 25 25 24 23 23 23 22 21 20 19 18 18 17 16 16 15 15 13 12 13 14 14 15 15 15 15 16 16 15 16 16 18 19 19 19 19 20 21 22 22 23 23 22 22 23 23 21 20 20 19 17 15 10 11 15 11 14 21
10 9 10 9 10 14 17 19 20 20 21 22 22 23 24 23 24 24 23 21 22 22 23 24 24 24 25 25 24 24 24 23 23 22 21 20 18 18 18 17 17 16 16 15 13 12 14 15 15 16 16 16 16 16 16 16 16 17 19 20 20 19 19 21 23 23 23 22 22 22 23 23 22 21 20 21 21 19 17 13 12 13 11 13 17
9 9 10 10 13 17 19 20 21 21 22 22 23 23 24 24 25 26 25 24 25 25 25 25 26 25 25 24 24 24 24 23 23 22 21 19 18 18 18 17 17 16 15 14 13 13 14 15 15 16 16 16 16 16 17 17 17 18 19 20 20 19 20 22 23 22 23 23 22 21 22 22 22 21 20 21 20 19 18 17 14 10 8 9 12
10 10 10 11 15 19 20 21 21 21 22 23 24 24 25 25 25 25 24 24 25 25 25 25 25 25 24 24 24 24 24 24 23 22 19 18 18 18 18 17 16 16 15 14 14 13 14 15 16 16 16 16 16 16 17 18 18 19 20 20 21 20 21 23 22 23 23 23 22 22 22 22 22 21 21 20 20 18 17 17 16 12 8 7 8
11 11 10 11 16 19 21 22 21 22 23 24 24 24 25 25 24 24 23 23 24 24 24 24 25 25 24 24 24 23 23 23 23 21 19 18 18 17 17 17 16 15 15 15 14 14 15 15 16 18 17 17 18 17 18 18 19 20 21 21 21 20 22 23 22 23 23 22 23 24 23 22 21 21 21 20 19 18 17 16 15 14 10 7 5
12 12 12 12 16 19 20 21 22 23 24 25 25 24 25 24 24 23 22 22 23 23 24 24 24 24 24 24 23 22 22 22 21 20 20 20 19 18 18 17 16 16 16 15 15 15 15 16 17 19 19 19 19 19 19 19 19 21 21 21 20 19 21 23 22 23 23 23 25 25 24 22 21 21 21 20 19 18 17 16 14 13 11 8 6
12 12 11 12 16 19 21 21 23 25 26 26 26 25 24 23 23 22 21 21 21 22 23 22 23 23 23 22 21 21 20 20 19 20 20 20 20 20 20 19 18 17 16 15 14 14 15 16 17 19 20 20 20 20 20 20 20 21 21 21 20 19 21 23 22 22 22 23 25 25 25 24 23 22 22 21 20 18 17 17 15 14 13 10 9
11 12 11 12 16 20 22 23 24 26 27 27 27 25 24 23 22 21 20 20 20 21 21 21 21 22 21 21 19 18 17 17 19 20 20 21 22 22 21 20 19 17 16 15 14 14 14 16 17 19 20 21 21 21 21 21 21 21 20 21 19 19 21 22 22 21 21 23 25 25 25 25 24 24 23 22 21 19 18 17 16 15 14 12 12
12 13 12 13 17 21 23 24 25 26 27 28 27 26 25 23 22 22 21 20 19 20 20 20 20 20 20 19 17 15 17 20 21 22 23 24 23 22 22 21 20 18 16 14 13 12 13 15 17 18 19 20 21 21 21 20 21 21 20 20 19 20 21 21 21 21 21 23 25 25 24 25 25 25 25 24 23 22 21 19 17 15 14 14 13
13 13 13 13 17 21 23 24 25 26 26 27 27 27 26 24 23 22 21 20 19 19 19 20 20 19 18 18 18 19 22 24 24 24 25 25 24 23 23 22 20 18 15 13 12 12 12 14 17 18 19 20 20 20 20 20 22 22 20 19 18 19 20 20 20 20 20 21 24 24 24 24 25 26 25 24 24 23 22 20 17 15 14 16 16
14 14 13 14 19 22 23 24 25 25 26 27 27 27 26 24 23 22 21 20 18 18 19 20 19 19 19 20 21 22 23 23 24 25 25 25 25 24 22 21 20 17 14 13 13 14 14 16 18 19 19 19 19 19 20 21 21 21 20 19 17 18 18 18 19 19 18 19 22 23 23 23 25 26 25 24 23 23 22 20 18 16 16 17 18
14 12 11 15 20 21 21 22 23 24 25 26 26 26 26 24 23 22 21 20 19 19 20 20 20 20 21 22 22 22 23 24 25 25 25 25 25 24 22 21 19 17 15 15 15 15 16 17 19 20 19 19 19 19 19 20 20 20 19 18 17 17 17 17 17 17 17 17 19 21 21 22 25 25 25 24 23 22 22 21 19 18 17 17 18
14 13 12 14 16 17 19 21 22 23 24 25 25 26 25 24 23 23 22 22 21 20 19 19 20 20 21 23 24 25 25 25 25 25 25 25 24 23 23 20 18 17 17 17 17 16 17 18 19 20 19 18 18 18 18 19 19 19 18 17 17 16 15 16 16 16 15 15 17 18 19 21 23 24 24 24 22 21 21 20 20 19 18 18 18
15 14 13 13 13 15 18 21 22 23 24 24 26 26 25 24 23 23 23 23 22 20 19 20 20 21 23 25 26 25 24 24 25 25 25 24 24 24 22 19 18 18 18 18 17 17 17 18 19 19 19 18 18 17 18 18 18 18 17 16 15 14 14 14 15 15 13 13 15 16 17 20 22 22 22 22 22 21 20 19 19 19 18 18 18
15 14 14 14 13 14 18 21 22 23 24 25 26 27 26 26 24 23 23 23 22 20 20 21 23 23 25 26 25 24 24 25 25 25 24 24 24 23 21 19 17 17 18 18 18 18 18 18 19 19 18 18 17 17 17 17 16 16 15 14 13 12 11 13 14 13 11 12 15 16 15 18 19 20 21 21 21 21 20 19 19 18 18 18 18
14 14 15 15 14 14 17 21 22 23 24 25 26 27 28 27 26 25 25 24 23 21 21 22 24 25 25 25 25 25 25 25 26 25 25 25 24 22 21 19 17 17 17 17 17 18 18 18 18 18 18 17 17 16 16 16 15 14 13 12 11 9 9 11 13 12 10 12 15 16 15 16 17 18 19 20 20 21 20 20 19 18 18 18 19
16 16 17 17 15 14 17 21 23 24 25 24 25 27 28 28 28 27 26 26 24 22 21 23 24 25 25 25 25 25 25 25 26 25 25 25 24 23 21 18 17 17 17 17 17 17 17 18 18 18 17 17 16 16 15 15 14 13 12 11 10 8 8 10 11 10 10 13 15 15 15 16 17 18 19 19 20 20 21 21 21 20 19 20 20
17 17 16 17 17 17 20 23 24 25 25 25 26 28 28 29 28 28 27 26 25 23 21 23 25 24 24 25 25 25 26 26 26 25 25 26 25 24 21 19 18 18 18 17 17 16 16 17 17 17 17 16 16 15 14 13 12 11 10 11 9 8 8 9 10 10 11 14 15 14 14 15 16 17 18 19 20 21 21 22 22 22 22 22 22
16 16 15 16 16 17 21 23 24 26 27 27 28 29 29 29 29 28 28 26 24 23 23 25 25 25 25 25 25 26 26 26 26 26 26 27 26 24 22 21 20 19 18 17 17 17 17 16 16 16 16 16 15 13 12 11 11 10 10 9 8 8 9 8 8 10 13 15 14 13 13 14 16 17 19 20 20 21 22 23 24 25 24 24 24
16 16 16 16 16 17 20 23 26 29 29 30 31 30 29 30 29 29 28 26 23 24 25 25 26 26 25 26 26 27 27 27 27 26 26 27 27 25 24 22 21 19 18 18 17 17 17 15 15 15 15 15 13 11 10 10 10 9 8 6 5 8 10 8 7 10 13 15 15 13 13 15 17 19 20 22 22 22 23 24 25 26 26 25 25
18 18 18 17 17 19 22 24 27 30 31 34 36 35 33 32 31 29 28 25 24 25 26 26 26 26 26 26 27 27 27 27 27 26 27 27 27 25 24 22 20 19 18 18 18 18 17 16 15 15 14 13 12 10 9 9 9 8 6 4 5 8 9 8 7 9 13 15 16 15 15 16 17 20 21 22 23 24 24 25 26 28 27 26 25
16 17 17 16 17 21 24 27 30 31 32 34 35 35 35 33 32 30 27 26 26 27 28 27 27 27 27 27 27 27 28 28 28 27 27 26 26 25 23 22 20 19 19 19 19 19 18 17 15 15 14 12 11 9 8 8 8 6 5 6 7 9 9 8 7 8 10 14 16 16 16 17 18 20 22 23 25 25 24 26 28 28 27 26 25
15 15 15 15 19 22 24 27 31 32 32 31 31 32 33 33 32 30 28 27 29 30 29 29 28 28 29 29 29 29 29 29 28 27 27 26 26 24 23 22 20 19 18 18 18 19 19 18 16 14 14 12 10 8 7 7 7 6 5 7 8 9 8 8 6 5 6 10 14 15 16 17 19 20 21 24 25 24 24 26 27 27 27 26 26
16 16 16 18 22 23 24 26 29 31 31 30 30 32 33 32 31 30 28 30 32 31 29 29 29 29 30 30 30 30 29 29 28 27 27 26 26 25 24 22 20 19 18 17 16 16 18 18 16 14 13 13 10 8 7 6 6 6 6 6 9 10 10 8 5 3 2 7 12 14 15 17 19 20 21 23 23 21 24 27 26 27 28 27 28
18 20 22 24 27 26 27 28 29 32 32 32 32 34 33 31 30 29 30 32 32 30 28 28 30 31 31 31 31 30 29 29 29 28 28 27 26 25 24 22 21 21 19 16 15 15 16 16 16 14 13 13 12 10 9 8 7 7 7 8 9 11 12 10 8 5 4 5 9 12 14 16 18 20 21 23 22 21 24 26 24 26 28 28 30
21 23 24 26 29 29 30 31 32 33 33 34 36 35 32 31 29 29 31 32 31 29 28 29 31 32 32 32 31 30 30 30 30 29 28 27 26 25 24 22 22 21 18 16 16 16 15 15 15 14 13 13 12 12 11 10 10 9 9 9 9 9 10 9 8 8 7 7 8 11 14 15 17 19 21 22 22 23 26 25 23 25 29 29 31
25 27 27 27 29 29 30 33 33 32 32 34 36 34 31 30 29 30 32 32 30 30 30 32 33 34 33 32 31 30 31 31 31 30 29 28 26 25 24 23 22 20 18 18 18 18 16 14 13 13 12 12 11 11 10 11 11 11 10 10 9 8 8 9 9 8 7 8 9 11 14 14 15 18 21 21 21 22 26 26 23 24 28 29 31
24 29 30 30 30 30 30 31 32 32 33 35 35 33 31 29 29 30 31 31 31 31 32 33 34 33 32 32 32 32 32 32 31 31 30 28 25 23 24 24 23 21 20 20 19 18 16 14 12 11 11 11 11 10 9 9 10 11 11 11 11 10 10 10 9 8 8 10 12 14 15 14 15 18 20 21 21 20 23 26 24 23 27 29 30
27 29 30 30 30 31 32 32 32 34 35 36 35 32 29 29 30 30 31 31 31 31 32 33 33 33 32 33 33 32 32 31 31 30 29 27 24 24 25 25 24 22 20 19 17 15 15 14 12 11 10 10 10 9 7 7 8 10 10 11 12 12 11 9 8 8 10 12 14 15 15 15 16 18 19 21 21 19 21 24 23 23 25 27 28
27 29 30 28 27 29 32 33 34 36 36 36 35 31 29 29 30 30 31 31 32 33 33 33 33 33 33 33 32 32 31 31 30 29 28 27 26 24 24 23 23 21 19 18 17 15 15 14 12 11 9 9 8 7 6 5 6 8 9 10 11 11 10 9 8 9 11 13 14 14 13 14 16 17 19 20 20 19 21 22 22 22 24 26 27
25 28 30 29 25 26 30 32 34 36 36 36 35 32 29 30 30 31 31 32 34 35 33 32 33 33 33 33 33 32 32 31 30 29 29 28 27 25 23 22 22 21 20 19 18 17 16 15 13 12 9 7 6 5 5 4 5 7 9 10 10 10 9 8 9 10 11 12 13 13 12 14 16 17 18 19 19 20 21 21 21 23 25 25 26
26 28 29 29 26 26 28 30 33 35 35 35 35 33 30 30 32 33 33 34 36 35 34 34 34 34 34 34 33 33 32 31 31 30 29 28 27 26 24 22 21 21 20 19 19 19 18 17 15 13 10 7 5 4 4 5 7 9 10 10 9 8 8 8 8 10 11 11 12 12 11 13 16 17 18 18 18 20 22 21 22 24 25 26 27
26 28 29 29 27 27 28 28 30 32 33 34 36 34 31 31 33 35 35 36 36 35 35 35 35 34 35 35 33 33 32 31 30 29 28 28 27 27 26 23 22 21 20 21 21 20 20 19 17 15 12 8 5 4 5 6 9 10 11 9 8 7 7 8 8 9 9 10 11 11 10 12 15 17 17 18 19 21 22 22 22 24 26 26 27
25 26 28 28 27 28 29 28 28 30 33 34 35 35 34 33 35 36 37 37 37 36 35 36 35 35 36 35 34 33 31 29 28 27 26 27 28 28 27 25 24 22 21 21 22 22 21 20 18 16 13 9 6 6 5 7 10 10 10 8 7 6 6 7 7 7 8 9 9 10 11 12 15 16 16 18 19 21 23 23 23 25 26 26 27
26 27 29 28 26 26 28 28 28 30 32 33 33 34 35 36 36 37 37 38 37 37 36 35 36 36 36 35 35 33 31 29 28 26 25 25 26 27 27 26 25 24 23 22 22 23 23 22 19 17 14 11 8 7 6 8 10 10 9 7 6 6 6 6 6 7 8 8 8 10 11 11 13 15 15 17 19 22 24 24 24 24 25 25 26
25 28 29 28 26 26 27 28 29 30 32 33 33 33 35 37 38 37 39 39 38 37 37 36 36 36 35 35 34 33 31 30 28 26 26 25 26 26 26 25 24 24 23 23 23 24 23 22 20 18 16 13 9 7 7 9 10 10 8 6 5 5 6 6 7 7 8 8 8 9 10 11 14 15 16 18 20 22 24 25 25 25 24 24 24
25 28 28 27 26 27 27 27 28 30 32 33 33 33 35 38 38 39 39 38 37 37 36 36 35 35 35 34 34 32 31 30 28 26 26 25 25 24 23 23 22 22 22 21 21 22 22 20 18 17 15 13 9 7 7 9 10 9 7 5 3 4 5 6 7 7 8 8 7 8 10 12 15 17 17 19 21 22 23 25 26 26 25 24 24
25 26 26 26 27 27 28 28 27 29 31 31 32 33 35 37 39 39 39 38 36 35 35 34 34 34 34 34 33 32 32 31 29 27 25 23 22 21 21 21 21 21 21 20 18 18 18 17 16 15 12 9 7 6 7 8 9 8 6 3 2 4 6 6 6 6 7 8 8 8 10 12 14 16 17 18 20 21 22 24 26 26 26 25 24
25 25 24 25 26 27 28 28 27 29 31 31 32 33 34 37 39 40 39 39 38 36 34 34 34 34 35 35 34 34 32 30 28 26 24 23 21 20 20 20 19 19 19 19 17 16 15 14 13 12 12 9 6 6 7 8 9 8 5 2 2 4 6 6 4 4 6 8 7 6 8 10 12 14 14 15 17 19 20 21 23 25 27 26 24
Wind_Direction
134 138 140 139 143 149 154 160 162 164 167 167 165 161 159 157 156 156 161 166 167 169 171 168 164 162 161 161 163 166 167 164 160 157 151 144 133 123 117 112 111 108 103 104 107 106 101 101 107 112 109 99 87 82 74 64 57 50 49 47 43 45 35 24 16 6 359 349 337 343 2 14 39 65 32 19 13 13 10 0 356 359 357 350 340
137 141 144 141 143 148 153 159 163 165 164 166 166 163 162 161 159 159 162 166 169 172 175 173 170 166 161 161 165 162 159 159 152 139 129 124 119 116 114 112 110 108 105 107 108 106 104 105 106 105 98 89 86 82 73 64 54 48 47 47 48 46 43 34 24 20 17 1 339 339 353 13 24 337 359 16 20 20 20 17 15 18 16 9 3
147 148 147 144 143 145 151 160 166 165 162 166 169 166 167 166 165 165 167 168 170 172 174 175 173 169 163 163 164 157 152 149 139 128 121 118 115 116 115 113 113 111 110 110 105 102 102 101 96 91 84 78 79 75 65 59 50 45 42 40 43 44 46 43 38 39 29 14 359 356 351 348 338 324 334 343 353 13 15 16 15 8 9 10 11
149 148 143 144 144 146 154 162 167 164 162 167 170 168 169 168 167 168 170 170 170 170 172 174 171 168 163 160 159 152 142 135 128 121 119 116 114 115 114 113 115 114 113 109 102 98 94 90 83 75 72 65 63 63 58 54 48 43 41 37 35 37 43 45 47 49 43 37 24 336 300 323 338 328 326 316 324 5 3 12 10 358 1 4 5
145 145 146 148 149 152 157 162 167 166 165 167 168 170 169 167 166 169 170 169 170 170 169 171 169 165 159 153 149 141 133 128 123 118 116 117 115 113 112 112 113 110 106 103 98 94 87 80 70 64 64 58 56 59 58 54 50 45 40 38 40 43 45 48 54 54 51 55 56 46 327 342 294 315 326 298 303 341 345 8 6 358 3 4 0
145 146 154 157 153 155 157 161 166 165 165 166 167 171 172 169 169 169 169 169 171 171 169 170 167 165 161 153 145 137 130 126 123 121 119 118 115 113 111 109 107 101 96 95 93 87 79 72 65 57 55 56 56 57 59 56 51 49 43 41 46 48 48 50 52 51 51 55 58 69 70 35 345 328 336 292 319 328 325 353 355 358 3 3 1
149 149 155 155 154 156 157 161 165 164 165 166 169 174 174 172 173 171 169 170 174 172 169 168 165 164 162 157 149 141 134 127 124 125 123 120 117 114 110 103 98 93 88 86 83 77 72 70 67 64 59 57 56 57 61 60 56 54 49 51 57 56 58 59 53 46 47 49 50 61 65 56 43 25 23 321 323 319 326 343 349 355 358 359 1
153 153 154 153 157 160 159 162 165 165 165 168 172 176 175 172 173 172 168 170 174 173 171 169 166 162 159 155 148 142 136 130 127 127 125 123 118 111 106 99 92 87 81 76 72 71 72 72 71 73 72 66 65 69 70 66 60 59 59 65 67 64 64 66 62 57 52 49 48 54 59 60 55 44 35 10 327 296 322 338 344 346 352 1 0
158 157 158 156 156 159 161 162 164 166 166 168 171 175 174 169 167 170 168 169 172 174 174 172 168 162 157 151 142 137 136 134 132 129 127 125 116 108 103 97 89 82 77 70 66 66 69 76 78 77 77 76 76 78 74 65 60 61 68 72 72 70 68 68 66 63 58 56 54 55 55 54 51 42 33 25 11 330 326 334 337 340 345 352 355
163 160 159 154 151 156 160 156 157 162 163 166 170 173 172 166 163 164 166 167 167 170 173 173 169 162 155 148 140 138 138 136 135 131 127 124 115 107 102 94 87 82 80 77 75 76 78 83 84 82 82 80 79 77 69 65 67 72 75 77 75 71 68 66 66 64 62 63 62 59 55 50 44 35 28 24 17 360 336 324 334 337 334 334 345
162 158 152 148 147 149 150 146 147 153 158 161 162 164 165 162 159 156 158 161 162 164 167 165 162 156 151 147 144 143 142 139 134 129 127 123 115 107 100 93 91 89 89 86 83 82 84 84 84 84 84 80 77 72 69 73 78 80 80 78 74 70 67 67 67 64 64 65 64 61 58 53 48 40 30 26 22 5 342 325 334 335 325 323 335
156 155 150 147 144 141 141 139 141 146 149 150 149 149 150 151 152 149 150 155 158 160 162 160 157 152 149 148 147 146 145 142 135 130 128 123 115 108 102 99 97 94 90 85 80 79 82 84 85 87 85 82 79 75 77 84 84 83 81 76 72 70 68 65 64 63 66 66 63 61 59 55 51 46 39 34 29 18 10 353 339 340 327 319 331
155 156 152 150 143 139 140 138 140 143 143 141 140 140 139 140 143 141 142 149 154 157 159 159 157 153 151 151 150 149 147 143 137 133 129 124 116 109 105 103 99 94 89 83 79 81 85 87 88 89 88 86 85 82 85 88 85 83 80 75 73 71 67 66 69 70 70 67 63 61 58 55 50 46 41 37 32 26 20 4 344 345 331 317 329
156 155 152 150 145 143 142 140 141 143 141 137 136 137 135 135 138 136 135 142 148 150 152 152 151 152 153 152 151 149 146 142 138 134 129 122 114 109 108 105 99 94 90 85 84 89 92 92 92 92 91 90 89 88 89 88 85 83 81 78 76 72 69 72 76 75 71 66 63 60 56 53 49 44 42 39 34 28 22 9 351 344 333 323 327
154 151 150 148 145 144 142 142 144 143 139 137 136 138 137 136 137 134 133 138 142 143 145 145 145 148 151 150 148 147 144 139 135 132 127 120 114 112 110 105 100 96 93 90 91 97 99 98 96 95 94 93 91 91 91 89 87 85 84 83 80 75 74 76 76 71 66 62 59 58 56 52 48 46 45 43 39 33 25 18 8 354 338 332 328
154 153 148 144 145 145 145 145 145 142 139 139 140 141 139 138 138 135 135 138 140 141 141 141 143 145 147 146 144 143 141 137 132 129 124 119 117 116 112 106 103 102 101 100 98 101 104 102 99 97 97 95 93 93 92 90 89 88 87 85 81 77 75 74 71 66 62 59 57 57 58 54 49 47 46 43 41 38 31 24 18 12 355 338 332
155 156 151 148 148 148 149 148 145 143 142 141 142 144 143 141 139 137 136 138 139 140 140 140 141 141 141 142 141 140 138 135 132 128 122 119 118 118 114 108 108 110 111 110 107 107 108 106 103 101 99 97 96 94 92 92 91 88 87 85 81 76 73 70 66 63 61 60 59 58 58 55 48 45 43 40 37 34 31 27 23 19 8 351 338
151 152 151 150 149 148 149 148 146 146 144 143 144 145 144 143 143 141 139 139 140 140 140 141 141 139 138 138 138 138 136 133 131 127 124 123 121 118 116 114 116 120 120 118 116 114 113 111 108 105 102 99 98 96 93 92 91 88 85 83 78 74 72 70 65 62 61 61 59 57 54 50 44 39 35 31 30 27 25 25 25 23 16 7 350
148 150 153 151 150 149 148 146 145 145 145 145 145 145 144 145 146 144 142 142 142 142 141 141 142 140 138 138 138 137 135 133 130 129 129 127 123 121 123 124 126 128 127 126 122 119 117 116 113 109 106 103 101 99 95 91 88 85 83 79 75 73 74 74 69 62 59 58 56 52 47 43 38 34 30 26 25 25 23 24 27 28 23 13 359
152 154 156 152 151 150 149 146 144 145 145 144 145 145 145 146 146 145 144 144 145 146 144 141 141 141 138 137 136 135 136 136 136 136 133 128 126 128 130 132 132 132 132 130 125 122 120 119 118 115 110 106 104 101 97 93 89 85 81 78 77 80 81 78 72 63 57 55 51 48 43 39 34 32 30 29 30 29 28 30 31 30 29 23 9
156 156 154 152 150 150 149 146 144 144 143 144 146 147 148 148 149 148 148 147 148 148 147 143 141 141 138 136 134 134 136 136 136 134 130 128 130 133 134 134 134 133 134 131 126 124 124 126 125 121 113 108 106 102 98 97 94 89 83 81 85 89 86 79 71 63 57 54 49 45 42 37 35 34 34 35 36 35 34 36 36 32 30 25 11
157 155 154 151 149 150 149 145 144 144 144 146 147 148 149 150 151 152 151 151 152 152 151 147 144 141 138 136 135 134 134 132 131 131 131 132 134 135 136 135 131 129 131 129 123 123 127 132 131 124 115 109 105 102 100 99 97 92 87 87 90 91 85 76 69 61 57 54 48 43 42 38 37 37 36 37 39 38 38 39 37 33 24 16 6
155 154 153 151 150 152 149 145 145 147 147 149 149 150 151 152 154 154 153 153 154 154 153 150 147 144 140 138 137 137 137 135 133 134 135 135 135 136 138 135 129 126 123 119 118 118 121 128 132 127 119 112 107 103 101 100 98 94 91 91 91 87 80 72 65 60 58 54 47 44 43 41 40 39 37 38 40 38 37 36 31 24 14 7 4
152 151 150 148 150 152 149 147 148 149 150 151 150 150 151 153 155 155 153 154 154 153 153 152 151 149 148 147 144 143 143 141 137 136 136 136 136 136 136 133 128 123 118 115 114 113 113 120 129 128 120 113 109 106 103 101 99 95 94 94 90 83 75 67 62 62 60 54 47 47 46 42 40 39 36 36 37 35 32 30 25 19 13 6 3
151 151 149 149 151 153 151 152 152 151 151 150 149 150 152 154 156 155 154 155 155 155 156 158 157 153 152 150 147 145 144 142 139 138 137 138 138 137 135 132 127 122 119 116 113 109 108 113 122 126 121 114 110 108 105 103 102 99 97 95 92 84 74 65 63 63 62 54 47 47 47 43 39 36 33 31 31 30 27 24 20 15 11 6 2
153 153 152 152 153 152 152 153 154 153 152 150 150 152 154 155 157 158 158 158 159 160 160 160 160 156 151 149 147 146 145 144 143 141 140 141 140 138 134 130 126 123 119 115 110 106 105 109 117 123 121 115 112 111 108 105 103 101 98 97 94 83 73 67 66 67 65 54 44 45 47 42 36 32 28 25 24 24 23 21 17 13 8 3 359
155 155 155 155 154 152 152 154 155 154 153 153 153 154 155 157 159 162 163 162 162 162 160 158 156 153 149 148 147 147 147 146 146 145 144 143 141 138 133 127 126 122 117 112 108 104 103 106 114 120 120 117 114 113 111 108 104 101 99 101 97 86 76 73 73 73 70 53 43 44 46 41 35 28 22 20 19 19 20 19 16 11 7 0 354
156 157 157 158 157 153 152 155 156 155 155 155 155 156 158 160 161 163 164 165 164 163 160 156 153 150 149 149 148 148 148 148 146 144 143 142 140 137 132 128 125 118 112 108 105 105 104 106 113 118 119 120 117 114 112 110 108 104 102 104 103 96 87 84 84 81 71 54 45 45 45 40 34 28 21 17 15 13 13 14 13 9 4 357 350
160 163 163 162 161 157 155 157 157 158 157 155 154 157 159 160 162 164 165 167 167 166 162 158 154 152 150 150 150 150 150 149 148 146 144 142 141 137 132 128 122 114 109 106 103 103 104 108 113 116 119 121 118 113 111 112 114 111 105 103 107 114 106 94 93 87 69 56 50 47 45 40 34 29 24 18 14 11 8 5 5 3 359 353 347
164 167 167 166 164 161 158 158 158 160 158 153 154 158 160 161 163 165 166 167 170 170 165 159 157 155 153 153 153 152 151 150 149 148 147 145 143 139 135 127 119 112 108 106 104 102 103 107 112 116 119 119 116 112 112 116 118 115 109 100 101 124 130 108 96 87 69 59 54 50 46 38 29 24 20 15 13 11 8 4 2 359 356 351 344
166 167 168 169 166 163 163 160 159 160 158 155 157 161 162 162 164 166 166 167 170 169 164 161 159 157 157 157 156 154 153 150 148 147 148 148 146 142 136 128 119 112 107 105 103 101 101 105 110 115 116 115 113 111 114 122 124 120 117 107 99 122 137 126 101 84 69 60 54 51 46 34 23 18 14 9 8 8 6 4 3 2 359 355 348
168 169 170 172 170 169 169 164 160 160 160 158 160 162 163 164 165 165 166 168 170 167 163 162 160 160 160 159 158 156 154 151 148 145 146 148 147 143 137 131 123 115 107 103 101 99 100 104 110 114 114 113 113 114 120 130 132 129 130 126 110 122 137 139 113 86 69 57 49 43 40 31 20 15 10 6 4 2 2 2 2 2 2 1 358
172 173 174 174 173 172 170 164 161 162 164 164 164 165 166 166 165 164 166 169 167 165 164 163 162 163 163 162 161 160 157 155 151 147 146 147 147 144 140 135 128 120 111 102 100 99 99 102 108 113 116 117 116 119 129 137 138 135 130 123 110 114 131 142 118 86 66 52 41 33 31 26 17 11 7 5 2 358 358 360 0 2 3 5 6
175 176 176 174 172 171 168 165 165 166 166 167 166 165 164 164 163 164 168 169 167 167 166 165 165 166 165 163 163 161 158 157 155 152 148 147 147 146 143 140 135 128 117 107 102 100 98 99 104 109 117 123 121 123 137 144 145 139 117 106 105 108 125 137 118 86 64 44 30 24 21 15 11 8 5 3 1 358 356 357 0 6 8 9 9
178 176 177 175 170 169 166 166 167 166 165 164 163 161 160 160 162 166 168 169 169 169 168 167 168 169 167 165 163 160 158 157 157 157 154 150 148 147 146 145 141 135 126 115 107 101 97 97 99 103 112 117 121 132 150 157 157 152 129 110 104 104 121 139 133 100 63 33 18 17 14 6 4 6 6 5 2 358 358 360 4 11 12 10 8
178 175 175 172 170 168 165 164 164 163 161 161 160 160 159 160 164 166 166 168 170 170 169 170 171 170 169 167 165 162 160 159 160 160 159 155 151 148 147 148 146 140 133 126 118 107 100 96 95 99 103 106 112 128 146 156 160 164 157 131 111 103 106 118 125 115 42 11 8 10 7 0 1 5 9 10 7 1 1 4 9 13 13 10 6
174 174 173 170 170 169 164 162 162 163 163 161 161 161 160 160 164 165 166 169 171 170 171 173 172 170 169 169 167 165 163 163 163 162 161 160 157 153 151 150 148 145 139 136 131 119 108 100 96 96 98 101 104 107 112 119 123 138 153 146 128 112 101 97 94 84 54 18 11 8 1 358 1 8 13 15 14 9 6 8 11 13 11 8 4
168 170 170 170 171 169 165 164 164 165 166 164 163 163 162 163 166 166 167 170 170 171 174 174 172 171 170 170 170 169 167 165 165 164 162 161 160 158 158 156 152 148 144 141 137 128 118 108 99 95 95 100 103 100 99 99 100 110 125 133 134 124 108 95 87 83 69 41 21 9 3 1 5 12 18 21 21 17 13 13 14 13 10 5 1
169 169 170 170 170 167 166 165 165 167 168 165 163 164 163 165 168 168 169 171 172 175 177 175 172 172 173 173 172 169 166 165 165 165 162 160 158 159 162 162 158 152 145 139 135 131 127 120 109 100 95 98 102 100 95 92 93 99 106 116 130 129 110 94 86 82 64 34 21 14 12 11 12 17 22 24 22 18 15 14 14 13 10 4 360
169 171 170 169 167 165 165 166 167 167 167 165 165 165 165 167 170 170 170 172 175 179 179 175 173 174 175 175 171 167 167 168 168 167 163 161 160 159 160 159 156 149 141 136 134 132 132 132 126 112 100 95 94 94 94 91 92 98 102 107 116 114 101 92 82 65 40 26 24 24 24 24 21 21 24 23 19 15 14 14 14 14 10 3 359
170 171 169 167 166 165 166 168 169 168 167 167 166 166 166 168 170 170 171 173 177 180 177 174 175 176 175 173 171 170 172 173 170 167 164 163 162 158 154 151 149 147 145 145 144 141 141 142 139 127 111 97 86 83 91 97 96 101 105 106 106 103 94 85 72 49 32 26 25 26 28 30 26 22 22 22 19 17 16 15 15 14 9 3 1
168 169 169 167 166 166 166 168 169 169 169 169 167 166 167 168 169 172 173 173 176 177 176 176 176 175 174 173 173 173 174 172 169 167 166 166 164 159 154 150 150 151 152 154 155 156 157 157 152 141 123 104 89 77 77 96 104 107 111 108 102 97 89 77 62 45 34 28 25 23 24 27 27 23 22 23 22 19 19 18 15 11 6 4 5
167 168 169 166 164 167 168 167 169 170 170 170 168 167 167 168 171 173 172 173 174 175 176 177 175 174 174 174 173 173 173 171 170 170 170 169 168 164 159 156 157 159 160 162 165 168 170 169 162 150 134 116 98 78 70 92 112 114 115 110 100 90 80 66 51 39 33 30 26 24 24 27 28 24 22 25 25 22 21 20 15 10 7 7 9
167 169 169 165 163 165 167 168 169 170 170 170 169 168 168 170 172 173 172 172 173 173 175 176 175 174 173 173 172 173 174 172 172 173 173 172 171 169 165 165 167 169 170 172 175 176 177 177 170 158 149 140 120 94 87 105 118 119 116 109 99 88 74 61 50 39 35 31 26 24 26 28 28 25 23 25 26 23 22 21 16 12 11 11 11
167 168 168 166 163 163 165 168 170 169 169 171 171 170 169 170 172 173 173 172 172 172 173 174 174 173 172 171 172 173 175 175 175 175 175 175 175 174 173 174 177 179 180 180 181 182 182 180 175 166 162 160 144 123 120 123 124 123 119 110 99 88 73 60 52 43 38 35 31 29 28 28 27 24 23 24 24 23 22 21 18 15 14 13 13
165 166 167 166 163 162 164 167 169 170 171 172 174 173 171 169 171 174 174 172 172 172 171 171 172 172 171 171 172 174 176 176 175 175 175 175 177 177 178 182 185 187 188 187 186 186 185 181 177 172 170 169 155 138 136 136 133 129 124 117 105 88 72 59 50 44 40 41 41 35 30 29 27 24 22 24 23 22 21 20 19 17 15 15 15
166 166 167 166 164 164 165 166 169 171 172 172 175 176 172 170 172 173 173 172 172 171 169 169 170 170 170 171 173 175 175 174 172 172 174 177 179 181 182 186 190 191 192 192 191 189 185 181 178 175 174 173 163 149 145 143 140 136 130 121 106 86 73 62 51 42 37 36 40 38 34 29 26 23 23 23 22 21 21 21 20 18 15 15 16
166 166 167 167 167 167 167 167 169 171 172 173 175 175 173 173 174 174 174 173 173 171 169 169 169 169 170 172 174 175 174 172 173 176 180 181 183 184 186 188 190 192 193 192 191 188 185 182 178 176 176 177 172 162 154 148 143 138 131 122 100 74 58 44 35 31 29 27 31 36 35 26 20 20 20 19 19 20 21 22 21 19 16 15 16
164 167 168 169 170 169 167 168 170 172 173 174 174 174 175 175 175 175 174 173 171 170 169 168 168 169 170 172 175 175 174 174 176 181 185 187 189 193 195 197 197 197 195 192 188 186 186 186 184 182 182 184 183 176 165 159 155 147 138 127 89 50 31 18 12 17 24 26 27 30 31 26 20 18 18 17 16 17 18 20 21 20 18 17 17
165 169 170 170 171 172 169 169 171 172 173 174 174 175 176 175 174 174 175 173 170 168 168 168 169 170 171 174 176 176 176 178 181 183 185 187 188 191 194 196 196 193 191 191 192 190 189 188 189 190 195 201 200 187 176 172 170 164 154 138 41 15 11 6 2 6 17 23 24 26 29 27 23 20 18 16 15 15 14 14 16 18 19 18 17
168 171 171 171 172 173 172 171 171 173 174 175 175 176 176 175 174 175 176 174 171 169 169 170 171 171 173 176 177 178 180 182 184 185 185 182 178 176 178 183 184 183 183 187 193 193 190 192 198 203 207 211 209 197 188 183 178 176 178 200 325 350 359 1 356 360 17 23 23 22 26 26 22 19 19 15 13 14 14 10 10 14 18 18 17